Regional Weather Roundup
Issued by NWS

Home | Current Version | Previous Version | Text Only | Print | Product List | Glossary Off
Versions: 1 2 3 4 5 6 7 8 9 10 11 12 13 14 15 16 17 18 19 20 21 22 23 24 25 26 27 28 29 30 31 32 33 34 35 36 37 38 39 40 41 42 43 44 45 46 47 48 49 50

000
ASUS43 KLSX 301310
RWRMO

WEATHER SUMMARY FOR MISSOURI
NATIONAL WEATHER SERVICE SPRINGFIELD MO
800 AM CDT FRI SEP 30 2016

NOTE: "FAIR" INDICATES FEW OR NO CLOUDS BELOW 12,000 FEET WITH NO
       SIGNIFICANT WEATHER AND/OR OBSTRUCTIONS TO VISIBILITY.
       CURRENT SKY AND/OR WEATHER CONDITIONS ARE NOT AVAILABLE FOR
       CHILLICOTHE AND FARMINGTON.

MOZ001>031-035>038-043-044-053-054-301400-
...NORTHERN AND WESTERN MISSOURI...

CITY           SKY/WX    TMP DP  RH WIND       PRES   REMARKS
KANSAS CTY INT CLEAR     50  46  86 N5        30.25S
KANSAS C DTWN  CLEAR     53  49  86 CALM      30.25R
LEE`S SUMMIT   CLEAR     52  50  93 CALM      30.25R
ST JOSEPH      CLEAR     48  47  96 NE6       30.27R
CHILLICOTHE      N/A     53  50  89 NW6       30.23F
KIRKSVILLE     CLEAR     53  48  83 N8        30.21F

$$
MOZ066>068-077>081-088>096-101>105-301400-
...SOUTHWEST MISSOURI...

CITY           SKY/WX    TMP DP  RH WIND       PRES   REMARKS
SPRINGFIELD    CLEAR     51  48  89 NW5       30.20S
JOPLIN         CLEAR     48  47  96 CALM      30.23R
BRANSON        CLEAR     54  50  87 CALM      30.21R

$$
MOZ032>034-039>042-045>050-055>058-069>072-301400-
...CENTRAL MISSOURI...

CITY           SKY/WX    TMP DP  RH WIND       PRES   REMARKS
COLUMBIA       CLEAR     56  53  90 N7        30.18S
JEFFERSON CITY PTCLDY    56  54  93 W5        30.17S
ROLLA          SUNNY     55  54  96 NW8       30.15S
SEDALIA        CLEAR     53  50  89 NW6       30.21S
WHITEMAN AFB   CLEAR     52  52  99 N5        30.20F
OSAGE BEACH    CLEAR     53  52  96 NW3       30.19F

$$
MOZ051-052-059>065-301400-
...EAST CENTRAL MISSOURI...

CITY           SKY/WX    TMP DP  RH WIND       PRES   REMARKS
ST LOUIS INTL  CLOUDY    62  56  80 NW9       30.12S
SPIRIT OF STL  CLOUDY    62  57  83 NW7       30.11F
ST CHARLES     CLOUDY    61  58  90 NW9       30.11F

$$
MOZ072>076-082>087-097>100-106>115-301400-
...SOUTH CENTRAL AND SOUTHEAST MISSOURI...

CITY           SKY/WX    TMP DP  RH WIND       PRES   REMARKS
CAPE GIRARDEAU PTSUNNY   61  57  87 NW6       30.08S
FARMINGTON     CLOUDY    59  56  89 VRB7      30.11F
POPLAR BLUFF   SUNNY     58  56  93 CALM      30.09S
WEST PLAINS    PTSUNNY   57  53  86 N6        30.17S

$$




USA.gov is the U.S. government's official web portal to all federal, state and local government web resources and services.